QPF
0.01 0.01 0.01 0.01 0.01 0.01 0.01 0.01 0.01 0.01 0.00 0.00 0.01 0.02 0.03 0.03 0.02 0.02 0.01 0.01 0.01 0.00 0.00 0.00 0.00 0.00 0.00 0.00 0.00 0.00 0.00 0.00 0.00 0.00 0.00 0.00 0.00 0.00 0.00 0.00 0.00 0.00 0.00 0.00
0.01 0.01 0.01 0.01 0.00 0.00 0.00 0.00 0.00 0.00 0.00 0.00 0.01 0.01 0.03 0.03 0.02 0.01 0.01 0.00 0.00 0.00 0.00 0.00 0.00 0.00 0.00 0.00 0.00 0.00 0.00 0.00 0.00 0.00 0.00 0.00 0.00 0.00 0.00 0.00 0.00 0.00 0.00 0.00
0.01 0.01 0.01 0.00 0.00 0.00 0.00 0.00 0.01 0.00 0.01 0.00 0.00 0.01 0.01 0.02 0.02 0.01 0.00 0.00 0.00 0.00 0.00 0.01 0.00 0.01 0.00 0.00 0.00 0.00 0.00 0.00 0.00 0.00 0.00 0.00 0.00 0.00 0.00 0.00 0.00 0.00 0.00 0.00
0.01 0.01 0.01 0.00 0.00 0.00 0.01 0.00 0.00 0.00 0.00 0.00 0.00 0.00 0.01 0.01 0.01 0.00 0.00 0.00 0.00 0.00 0.01 0.01 0.00 0.01 0.00 0.00 0.00 0.00 0.00 0.00 0.00 0.00 0.00 0.00 0.00 0.00 0.00 0.00 0.00 0.00 0.00 0.00
0.02 0.02 0.01 0.00 0.00 0.00 0.00 0.01 0.01 0.01 0.00 0.00 0.00 0.00 0.01 0.01 0.01 0.00 0.00 0.00 0.00 0.00 0.01 0.01 0.01 0.01 0.00 0.00 0.00 0.00 0.00 0.00 0.00 0.00 0.00 0.00 0.00 0.00 0.00 0.00 0.00 0.00 0.00 0.00
0.02 0.02 0.01 0.00 0.00 0.00 0.00 0.00 0.01 0.00 0.00 0.00 0.00 0.01 0.01 0.01 0.01 0.01 0.00 0.00 0.00 0.01 0.01 0.01 0.01 0.01 0.00 0.00 0.00 0.00 0.00 0.00 0.00 0.00 0.00 0.00 0.00 0.00 0.00 0.00 0.00 0.00 0.00 0.00
0.01 0.01 0.01 0.00 0.00 0.00 0.00 0.00 0.00 0.00 0.01 0.01 0.00 0.00 0.01 0.01 0.01 0.01 0.00 0.00 0.01 0.02 0.01 0.02 0.02 0.01 0.01 0.00 0.00 0.00 0.00 0.00 0.00 0.00 0.00 0.00 0.00 0.00 0.00 0.00 0.00 0.00 0.00 0.00
0.01 0.01 0.01 0.00 0.00 0.00 0.00 0.00 0.00 0.00 0.00 0.00 0.00 0.00 0.00 0.01 0.01 0.01 0.01 0.01 0.01 0.02 0.02 0.03 0.03 0.02 0.01 0.00 0.00 0.00 0.00 0.00 0.00 0.00 0.00 0.00 0.00 0.00 0.00 0.00 0.00 0.00 0.00 0.00
0.02 0.01 0.00 0.00 0.00 0.00 0.00 0.00 0.00 0.00 0.00 0.00 0.00 0.01 0.01 0.01 0.01 0.01 0.01 0.02 0.03 0.03 0.03 0.03 0.01 0.01 0.01 0.01 0.01 0.01 0.01 0.01 0.01 0.00 0.00 0.00 0.00 0.00 0.00 0.00 0.00 0.00 0.00 0.00
0.00 0.00 0.00 0.00 0.00 0.00 0.00 0.00 0.00 0.00 0.00 0.00 0.00 0.01 0.01 0.01 0.01 0.02 0.02 0.02 0.02 0.02 0.02 0.02 0.01 0.01 0.01 0.01 0.01 0.01 0.02 0.01 0.01 0.01 0.01 0.00 0.00 0.00 0.00 0.00 0.00 0.00 0.00 0.00
0.00 0.00 0.00 0.00 0.00 0.00 0.00 0.00 0.00 0.00 0.00 0.00 0.00 0.01 0.01 0.01 0.01 0.01 0.02 0.02 0.01 0.01 0.01 0.01 0.01 0.01 0.01 0.01 0.00 0.01 0.02 0.01 0.01 0.01 0.01 0.00 0.00 0.00 0.00 0.00 0.00 0.00 0.00 0.00
0.00 0.00 0.00 0.00 0.00 0.00 0.00 0.00 0.00 0.00 0.00 0.00 0.00 0.00 0.01 0.01 0.01 0.01 0.01 0.01 0.01 0.01 0.01 0.01 0.01 0.01 0.01 0.00 0.00 0.02 0.04 0.04 0.01 0.00 0.00 0.00 0.00 0.00 0.00 0.00 0.00 0.00 0.00 0.00
0.00 0.00 0.00 0.00 0.00 0.00 0.00 0.00 0.00 0.00 0.00 0.00 0.00 0.00 0.01 0.01 0.01 0.00 0.00 0.00 0.00 0.01 0.01 0.02 0.02 0.01 0.00 0.00 0.00 0.01 0.03 0.04 0.03 0.01 0.01 0.00 0.00 0.00 0.00 0.00 0.00 0.00 0.00 0.00
0.00 0.00 0.00 0.00 0.00 0.00 0.00 0.00 0.00 0.00 0.00 0.00 0.00 0.00 0.00 0.01 0.01 0.01 0.01 0.00 0.00 0.00 0.01 0.01 0.01 0.00 0.00 0.00 0.00 0.00 0.01 0.03 0.03 0.02 0.01 0.00 0.00 0.00 0.00 0.00 0.00 0.00 0.00 0.00
0.00 0.00 0.00 0.00 0.00 0.00 0.00 0.00 0.00 0.00 0.00 0.00 0.00 0.00 0.00 0.00 0.00 0.00 0.01 0.00 0.00 0.00 0.00 0.00 0.00 0.00 0.00 0.00 0.00 0.00 0.00 0.01 0.02 0.02 0.01 0.01 0.00 0.01 0.01 0.00 0.00 0.00 0.00 0.00
0.00 0.00 0.00 0.00 0.00 0.00 0.00 0.00 0.00 0.00 0.00 0.00 0.01 0.00 0.00 0.00 0.00 0.00 0.00 0.00 0.00 0.00 0.00 0.00 0.00 0.00 0.00 0.00 0.00 0.00 0.00 0.01 0.01 0.01 0.01 0.01 0.00 0.00 0.00 0.00 0.00 0.00 0.00 0.00
0.00 0.00 0.00 0.00 0.00 0.00 0.00 0.00 0.00 0.00 0.00 0.01 0.01 0.01 0.00 0.00 0.00 0.00 0.00 0.00 0.00 0.00 0.00 0.01 0.01 0.00 0.00 0.00 0.00 0.00 0.00 0.00 0.01 0.01 0.00 0.00 0.00 0.00 0.00 0.00 0.00 0.00 0.00 0.00
0.00 0.00 0.00 0.00 0.00 0.00 0.00 0.00 0.00 0.00 0.00 0.01 0.01 0.00 0.00 0.01 0.00 0.00 0.00 0.00 0.00 0.00 0.00 0.00 0.01 0.01 0.01 0.01 0.00 0.00 0.00 0.00 0.00 0.00 0.00 0.00 0.00 0.00 0.00 0.00 0.00 0.00 0.00 0.00
0.00 0.00 0.00 0.00 0.00 0.00 0.00 0.00 0.00 0.00 0.00 0.00 0.00 0.00 0.00 0.00 0.00 0.00 0.01 0.01 0.00 0.00 0.00 0.00 0.00 0.00 0.00 0.00 0.00 0.00 0.00 0.00 0.00 0.00 0.00 0.00 0.00 0.00 0.00 0.00 0.00 0.00 0.00 0.00
0.00 0.00 0.00 0.00 0.00 0.00 0.00 0.00 0.00 0.00 0.00 0.00 0.00 0.00 0.00 0.00 0.00 0.00 0.01 0.01 0.01 0.01 0.00 0.00 0.00 0.00 0.00 0.00 0.00 0.00 0.00 0.00 0.00 0.00 0.00 0.00 0.00 0.00 0.00 0.00 0.00 0.00 0.00 0.00
0.00 0.00 0.00 0.00 0.00 0.00 0.00 0.00 0.00 0.00 0.00 0.00 0.00 0.00 0.00 0.00 0.00 0.00 0.00 0.01 0.01 0.01 0.01 0.00 0.00 0.00 0.00 0.00 0.00 0.00 0.00 0.00 0.00 0.00 0.00 0.00 0.00 0.00 0.00 0.00 0.00 0.00 0.00 0.00
0.00 0.01 0.01 0.01 0.01 0.01 0.01 0.01 0.01 0.00 0.00 0.01 0.01 0.01 0.01 0.00 0.00 0.01 0.01 0.01 0.01 0.01 0.01 0.01 0.00 0.00 0.00 0.00 0.00 0.00 0.00 0.00 0.00 0.00 0.00 0.00 0.00 0.00 0.00 0.00 0.00 0.00 0.00 0.00
0.01 0.01 0.01 0.01 0.01 0.01 0.01 0.01 0.01 0.01 0.01 0.01 0.01 0.02 0.01 0.01 0.01 0.01 0.01 0.01 0.01 0.01 0.01 0.02 0.01 0.00 0.00 0.00 0.00 0.00 0.00 0.01 0.01 0.01 0.01 0.01 0.01 0.01 0.01 0.00 0.00 0.00 0.00 0.00
0.01 0.01 0.01 0.01 0.01 0.01 0.01 0.01 0.01 0.02 0.02 0.02 0.02 0.02 0.02 0.01 0.02 0.02 0.02 0.02 0.02 0.01 0.01 0.02 0.02 0.01 0.00 0.00 0.01 0.01 0.01 0.02 0.02 0.02 0.02 0.02 0.02 0.02 0.01 0.01 0.01 0.01 0.01 0.01
0.00 0.00 0.00 0.00 0.01 0.01 0.01 0.01 0.01 0.01 0.01 0.01 0.01 0.02 0.02 0.02 0.02 0.02 0.02 0.02 0.02 0.02 0.01 0.01 0.01 0.01 0.01 0.01 0.01 0.01 0.01 0.01 0.02 0.02 0.02 0.02 0.02 0.02 0.01 0.01 0.01 0.00 0.00 0.00
0.00 0.00 0.00 0.00 0.00 0.00 0.00 0.01 0.01 0.01 0.01 0.01 0.01 0.01 0.01 0.01 0.01 0.02 0.02 0.02 0.02 0.02 0.02 0.02 0.02 0.01 0.01 0.01 0.01 0.01 0.01 0.01 0.01 0.01 0.00 0.00 0.00 0.00 0.00 0.00 0.00 0.00 0.00 0.00
0.00 0.00 0.00 0.00 0.00 0.00 0.00 0.00 0.00 0.00 0.00 0.00 0.01 0.01 0.01 0.01 0.01 0.01 0.01 0.01 0.01 0.01 0.02 0.02 0.02 0.01 0.01 0.01 0.01 0.00 0.00 0.00 0.00 0.00 0.01 0.01 0.00 0.00 0.00 0.00 0.00 0.00 0.00 0.00
MSLP
1017.14 1017.55 1017.94 1018.27 1018.51 1018.60 1018.54 1018.30 1017.92 1017.41 1016.86 1016.32 1015.87 1015.59 1015.50 1015.63 1015.96 1016.43 1017.00 1017.58 1018.13 1018.58 1018.93 1019.17 1019.34 1019.47 1019.61 1019.78 1020.03 1020.34 1020.70 1021.08 1021.45 1021.77 1022.02 1022.20 1022.30 1022.35 1022.36 1022.36 1022.37 1022.39 1022.42 1022.45
1017.38 1017.71 1017.99 1018.19 1018.29 1018.25 1018.08 1017.77 1017.36 1016.87 1016.37 1015.91 1015.56 1015.36 1015.33 1015.49 1015.80 1016.22 1016.72 1017.22 1017.70 1018.10 1018.44 1018.71 1018.93 1019.16 1019.40 1019.70 1020.06 1020.47 1020.91 1021.36 1021.77 1022.13 1022.41 1022.61 1022.73 1022.81 1022.85 1022.87 1022.90 1022.94 1022.98 1023.03
1017.74 1017.97 1018.12 1018.18 1018.14 1017.98 1017.71 1017.34 1016.91 1016.45 1016.00 1015.61 1015.33 1015.18 1015.19 1015.33 1015.59 1015.95 1016.35 1016.76 1017.15 1017.51 1017.83 1018.12 1018.41 1018.73 1019.09 1019.51 1019.98 1020.49 1021.01 1021.52 1021.98 1022.37 1022.67 1022.90 1023.05 1023.14 1023.21 1023.26 1023.32 1023.37 1023.44 1023.49
1018.16 1018.26 1018.27 1018.20 1018.02 1017.75 1017.41 1017.01 1016.57 1016.14 1015.74 1015.41 1015.18 1015.07 1015.07 1015.18 1015.37 1015.63 1015.93 1016.23 1016.54 1016.84 1017.14 1017.46 1017.81 1018.21 1018.67 1019.20 1019.77 1020.37 1020.97 1021.53 1022.04 1022.46 1022.79 1023.04 1023.22 1023.35 1023.44 1023.53 1023.61 1023.69 1023.77 1023.84
1018.52 1018.49 1018.37 1018.17 1017.89 1017.55 1017.15 1016.74 1016.32 1015.93 1015.58 1015.31 1015.12 1015.02 1015.00 1015.06 1015.17 1015.33 1015.51 1015.71 1015.93 1016.17 1016.44 1016.77 1017.17 1017.64 1018.18 1018.80 1019.45 1020.13 1020.79 1021.41 1021.95 1022.41 1022.78 1023.06 1023.27 1023.43 1023.56 1023.68 1023.79 1023.89 1023.99 1024.07
1018.71 1018.56 1018.33 1018.04 1017.69 1017.31 1016.91 1016.51 1016.13 1015.79 1015.51 1015.28 1015.13 1015.04 1014.99 1015.00 1015.03 1015.08 1015.16 1015.26 1015.39 1015.57 1015.81 1016.14 1016.56 1017.07 1017.67 1018.35 1019.07 1019.81 1020.52 1021.18 1021.76 1022.26 1022.66 1022.98 1023.23 1023.43 1023.60 1023.75 1023.89 1024.01 1024.13 1024.22
1018.66 1018.42 1018.12 1017.78 1017.40 1017.02 1016.64 1016.29 1015.97 1015.71 1015.49 1015.32 1015.20 1015.12 1015.06 1015.01 1014.97 1014.94 1014.93 1014.94 1014.99 1015.11 1015.32 1015.63 1016.05 1016.59 1017.22 1017.94 1018.69 1019.46 1020.21 1020.91 1021.53 1022.06 1022.50 1022.87 1023.16 1023.40 1023.61 1023.79 1023.94 1024.09 1024.20 1024.29
1018.33 1018.04 1017.72 1017.37 1017.01 1016.67 1016.35 1016.08 1015.84 1015.66 1015.52 1015.42 1015.34 1015.27 1015.20 1015.12 1015.04 1014.94 1014.86 1014.80 1014.79 1014.86 1015.03 1015.32 1015.73 1016.26 1016.90 1017.62 1018.39 1019.17 1019.94 1020.66 1021.31 1021.88 1022.36 1022.77 1023.10 1023.38 1023.61 1023.81 1023.98 1024.13 1024.24 1024.33
1017.77 1017.47 1017.15 1016.84 1016.55 1016.28 1016.06 1015.88 1015.74 1015.65 1015.59 1015.56 1015.52 1015.48 1015.42 1015.34 1015.22 1015.10 1014.97 1014.87 1014.83 1014.86 1014.99 1015.25 1015.63 1016.14 1016.75 1017.46 1018.21 1018.99 1019.76 1020.49 1021.17 1021.76 1022.28 1022.71 1023.08 1023.39 1023.64 1023.85 1024.02 1024.15 1024.26 1024.33
1017.03 1016.76 1016.50 1016.26 1016.06 1015.90 1015.78 1015.71 1015.68 1015.68 1015.71 1015.74 1015.76 1015.75 1015.72 1015.65 1015.54 1015.41 1015.28 1015.16 1015.10 1015.11 1015.21 1015.44 1015.78 1016.25 1016.82 1017.49 1018.21 1018.97 1019.72 1020.45 1021.12 1021.74 1022.27 1022.73 1023.11 1023.43 1023.68 1023.89 1024.04 1024.15 1024.24 1024.29
1016.22 1016.01 1015.84 1015.70 1015.61 1015.56 1015.56 1015.60 1015.67 1015.76 1015.86 1015.95 1016.03 1016.07 1016.08 1016.04 1015.96 1015.86 1015.75 1015.65 1015.59 1015.60 1015.69 1015.88 1016.18 1016.60 1017.12 1017.73 1018.40 1019.11 1019.83 1020.53 1021.19 1021.80 1022.34 1022.80 1023.19 1023.50 1023.74 1023.92 1024.05 1024.13 1024.18 1024.21
1015.44 1015.32 1015.24 1015.22 1015.24 1015.31 1015.42 1015.56 1015.72 1015.89 1016.05 1016.21 1016.34 1016.43 1016.48 1016.50 1016.48 1016.43 1016.36 1016.31 1016.27 1016.29 1016.37 1016.54 1016.80 1017.16 1017.61 1018.15 1018.75 1019.40 1020.07 1020.73 1021.36 1021.94 1022.47 1022.92 1023.28 1023.58 1023.79 1023.94 1024.03 1024.08 1024.10 1024.09
1014.75 1014.72 1014.76 1014.85 1014.99 1015.18 1015.39 1015.61 1015.84 1016.07 1016.29 1016.49 1016.67 1016.81 1016.93 1017.00 1017.05 1017.07 1017.07 1017.07 1017.08 1017.12 1017.21 1017.35 1017.57 1017.88 1018.26 1018.72 1019.24 1019.81 1020.41 1021.01 1021.59 1022.14 1022.63 1023.05 1023.39 1023.65 1023.83 1023.95 1024.00 1024.02 1024.00 1023.97
1014.18 1014.25 1014.40 1014.61 1014.87 1015.15 1015.45 1015.75 1016.04 1016.31 1016.57 1016.80 1017.02 1017.21 1017.38 1017.53 1017.65 1017.75 1017.83 1017.90 1017.96 1018.04 1018.14 1018.27 1018.45 1018.70 1019.01 1019.38 1019.82 1020.30 1020.81 1021.34 1021.86 1022.36 1022.80 1023.18 1023.49 1023.72 1023.87 1023.96 1023.98 1023.97 1023.92 1023.88
1013.71 1013.89 1014.15 1014.47 1014.83 1015.21 1015.59 1015.95 1016.28 1016.59 1016.88 1017.14 1017.39 1017.63 1017.85 1018.07 1018.26 1018.45 1018.61 1018.75 1018.87 1018.99 1019.10 1019.23 1019.38 1019.57 1019.81 1020.10 1020.44 1020.83 1021.26 1021.71 1022.16 1022.59 1022.99 1023.33 1023.60 1023.80 1023.93 1023.99 1023.99 1023.96 1023.90 1023.84
1013.32 1013.60 1013.97 1014.41 1014.87 1015.34 1015.78 1016.19 1016.57 1016.91 1017.21 1017.50 1017.78 1018.05 1018.33 1018.60 1018.87 1019.13 1019.37 1019.58 1019.77 1019.93 1020.06 1020.19 1020.31 1020.45 1020.62 1020.83 1021.09 1021.39 1021.73 1022.09 1022.47 1022.84 1023.19 1023.49 1023.73 1023.90 1024.01 1024.06 1024.06 1024.01 1023.95 1023.88
1012.95 1013.34 1013.83 1014.38 1014.94 1015.49 1016.00 1016.47 1016.88 1017.24 1017.56 1017.87 1018.17 1018.48 1018.79 1019.12 1019.45 1019.78 1020.09 1020.37 1020.61 1020.81 1020.97 1021.10 1021.20 1021.30 1021.42 1021.56 1021.73 1021.95 1022.21 1022.50 1022.81 1023.12 1023.41 1023.67 1023.89 1024.05 1024.15 1024.19 1024.18 1024.14 1024.08 1024.00
1012.59 1013.10 1013.70 1014.36 1015.02 1015.65 1016.23 1016.74 1017.19 1017.58 1017.93 1018.25 1018.57 1018.90 1019.25 1019.62 1020.00 1020.39 1020.76 1021.09 1021.38 1021.62 1021.80 1021.93 1022.03 1022.10 1022.17 1022.25 1022.36 1022.51 1022.69 1022.91 1023.16 1023.42 1023.67 1023.89 1024.08 1024.23 1024.32 1024.36 1024.36 1024.32 1024.25 1024.18
1012.25 1012.87 1013.59 1014.34 1015.10 1015.81 1016.45 1017.02 1017.50 1017.91 1018.28 1018.62 1018.96 1019.31 1019.69 1020.09 1020.51 1020.93 1021.34 1021.72 1022.05 1022.32 1022.52 1022.66 1022.75 1022.81 1022.85 1022.89 1022.95 1023.04 1023.17 1023.34 1023.53 1023.74 1023.95 1024.14 1024.31 1024.43 1024.52 1024.55 1024.55 1024.50 1024.43 1024.35
1011.95 1012.68 1013.49 1014.34 1015.18 1015.96 1016.66 1017.27 1017.79 1018.23 1018.61 1018.97 1019.32 1019.69 1020.08 1020.50 1020.95 1021.40 1021.84 1022.25 1022.60 1022.89 1023.11 1023.27 1023.36 1023.41 1023.44 1023.46 1023.49 1023.54 1023.63 1023.75 1023.90 1024.07 1024.24 1024.40 1024.54 1024.64 1024.71 1024.73 1024.71 1024.65 1024.57 1024.46
1011.73 1012.55 1013.45 1014.37 1015.27 1016.11 1016.85 1017.50 1018.05 1018.51 1018.92 1019.29 1019.65 1020.03 1020.43 1020.86 1021.32 1021.78 1022.23 1022.66 1023.03 1023.34 1023.57 1023.74 1023.85 1023.90 1023.93 1023.94 1023.96 1023.99 1024.06 1024.15 1024.26 1024.40 1024.53 1024.66 1024.76 1024.83 1024.87 1024.86 1024.81 1024.73 1024.61 1024.48
1011.62 1012.51 1013.46 1014.44 1015.38 1016.25 1017.02 1017.69 1018.27 1018.75 1019.17 1019.56 1019.93 1020.32 1020.73 1021.16 1021.62 1022.08 1022.53 1022.96 1023.34 1023.65 1023.90 1024.08 1024.20 1024.27 1024.31 1024.33 1024.35 1024.38 1024.43 1024.51 1024.60 1024.70 1024.80 1024.89 1024.95 1024.98 1024.97 1024.92 1024.84 1024.71 1024.56 1024.38
1011.62 1012.55 1013.54 1014.53 1015.49 1016.37 1017.16 1017.84 1018.43 1018.93 1019.37 1019.78 1020.16 1020.56 1020.97 1021.40 1021.85 1022.31 1022.75 1023.17 1023.55 1023.87 1024.12 1024.31 1024.45 1024.54 1024.59 1024.62 1024.66 1024.70 1024.75 1024.82 1024.89 1024.97 1025.04 1025.09 1025.11 1025.09 1025.03 1024.93 1024.79 1024.61 1024.41 1024.18
1011.72 1012.66 1013.65 1014.63 1015.58 1016.46 1017.25 1017.94 1018.54 1019.06 1019.51 1019.94 1020.34 1020.75 1021.16 1021.60 1022.04 1022.49 1022.92 1023.33 1023.70 1024.01 1024.27 1024.47 1024.61 1024.72 1024.79 1024.85 1024.90 1024.95 1025.01 1025.08 1025.14 1025.20 1025.24 1025.25 1025.22 1025.15 1025.04 1024.88 1024.68 1024.45 1024.20 1023.92
1011.85 1012.79 1013.76 1014.72 1015.64 1016.50 1017.28 1017.97 1018.58 1019.11 1019.60 1020.05 1020.48 1020.90 1021.33 1021.77 1022.21 1022.65 1023.07 1023.47 1023.82 1024.12 1024.38 1024.58 1024.73 1024.85 1024.95 1025.02 1025.09 1025.16 1025.23 1025.29 1025.34 1025.38 1025.39 1025.36 1025.29 1025.17 1025.01 1024.79 1024.55 1024.27 1023.96 1023.65
1011.98 1012.89 1013.83 1014.75 1015.64 1016.48 1017.24 1017.93 1018.55 1019.12 1019.63 1020.12 1020.58 1021.04 1021.49 1021.94 1022.39 1022.82 1023.24 1023.61 1023.95 1024.24 1024.49 1024.69 1024.85 1024.98 1025.08 1025.17 1025.25 1025.33 1025.40 1025.45 1025.50 1025.51 1025.49 1025.43 1025.31 1025.15 1024.94 1024.68 1024.39 1024.07 1023.73 1023.38
1012.06 1012.94 1013.83 1014.72 1015.58 1016.39 1017.14 1017.84 1018.48 1019.07 1019.63 1020.16 1020.67 1021.17 1021.65 1022.13 1022.59 1023.02 1023.43 1023.80 1024.12 1024.40 1024.63 1024.82 1024.98 1025.10 1025.21 1025.30 1025.38 1025.45 1025.52 1025.56 1025.58 1025.57 1025.52 1025.42 1025.27 1025.07 1024.82 1024.52 1024.20 1023.85 1023.48 1023.12
Thickness
5697 5705 5705 5703 5705 5704 5698 5693 5685 5692 5698 5710 5718 5721 5722 5721 5718 5715 5712 5711 5710 5708 5707 5705 5704 5702 5701 5699 5697 5696 5692 5690 5688 5687 5686 5684 5683 5682 5681 5680 5679 5678 5676 5675
5695 5705 5704 5701 5705 5706 5704 5704 5700 5702 5704 5721 5723 5721 5719 5718 5717 5714 5712 5712 5711 5709 5707 5705 5703 5701 5698 5696 5695 5692 5689 5686 5685 5683 5681 5679 5678 5677 5675 5674 5673 5672 5670 5669
5679 5693 5696 5688 5706 5708 5708 5712 5709 5702 5711 5720 5716 5717 5718 5718 5718 5716 5715 5714 5712 5711 5708 5706 5703 5701 5697 5696 5693 5689 5686 5683 5681 5679 5676 5675 5674 5672 5670 5668 5667 5665 5663 5662
5673 5680 5669 5696 5721 5721 5715 5716 5718 5719 5721 5722 5723 5723 5722 5722 5720 5717 5717 5715 5713 5711 5708 5706 5703 5700 5697 5693 5690 5686 5683 5680 5677 5675 5672 5670 5669 5667 5665 5663 5661 5659 5657 5655
5665 5665 5676 5700 5717 5719 5711 5709 5720 5719 5721 5722 5722 5716 5712 5720 5722 5721 5719 5717 5714 5712 5708 5704 5701 5698 5694 5690 5686 5683 5680 5677 5675 5672 5669 5666 5664 5662 5660 5657 5655 5653 5651 5649
5664 5664 5665 5693 5719 5727 5716 5700 5720 5721 5719 5718 5715 5699 5703 5717 5719 5718 5717 5715 5712 5709 5705 5701 5699 5696 5691 5686 5683 5680 5678 5676 5673 5670 5666 5663 5660 5658 5655 5653 5650 5647 5644 5642
5662 5662 5676 5706 5721 5720 5693 5698 5721 5722 5721 5717 5713 5713 5716 5718 5716 5715 5713 5711 5709 5705 5702 5699 5696 5693 5687 5683 5681 5680 5677 5673 5670 5667 5664 5660 5657 5654 5651 5647 5644 5641 5638 5635
5660 5658 5673 5713 5714 5705 5706 5719 5722 5721 5721 5718 5717 5717 5715 5714 5712 5710 5707 5705 5703 5700 5696 5694 5692 5689 5683 5680 5679 5676 5673 5669 5665 5662 5660 5656 5652 5648 5645 5641 5637 5633 5630 5627
5674 5680 5700 5711 5714 5719 5719 5717 5719 5719 5719 5717 5714 5711 5710 5709 5707 5705 5703 5700 5697 5694 5689 5687 5686 5685 5680 5677 5675 5671 5667 5663 5659 5656 5653 5650 5646 5642 5638 5634 5630 5626 5622 5618
5677 5688 5700 5707 5713 5716 5719 5718 5719 5718 5717 5715 5710 5708 5705 5703 5701 5699 5697 5694 5691 5688 5684 5681 5680 5679 5677 5673 5670 5666 5661 5656 5653 5649 5645 5642 5639 5636 5631 5626 5622 5618 5614 5610
5674 5686 5694 5701 5706 5710 5713 5714 5714 5713 5713 5711 5708 5703 5701 5698 5696 5693 5691 5689 5686 5683 5680 5677 5675 5673 5671 5668 5665 5660 5655 5650 5646 5642 5638 5634 5631 5627 5624 5620 5617 5612 5607 5603
5673 5686 5686 5692 5702 5707 5706 5706 5706 5705 5703 5703 5703 5699 5696 5693 5691 5689 5685 5683 5680 5678 5675 5673 5670 5667 5665 5663 5659 5654 5648 5643 5639 5635 5631 5626 5621 5617 5615 5611 5609 5605 5601 5596
5689 5693 5693 5696 5699 5702 5701 5701 5701 5700 5698 5695 5694 5693 5691 5687 5685 5682 5680 5677 5675 5673 5670 5667 5664 5661 5658 5656 5653 5648 5643 5638 5632 5628 5623 5618 5613 5608 5603 5600 5598 5594 5591 5586
5691 5690 5686 5688 5690 5694 5694 5694 5694 5692 5691 5689 5687 5685 5683 5680 5678 5675 5673 5672 5670 5667 5664 5661 5658 5654 5653 5650 5646 5641 5636 5631 5626 5620 5615 5610 5605 5600 5595 5590 5585 5581 5579 5576
5684 5686 5684 5685 5685 5686 5686 5685 5682 5680 5680 5679 5679 5678 5676 5673 5670 5669 5667 5665 5663 5660 5657 5654 5651 5648 5646 5642 5638 5632 5627 5622 5617 5611 5606 5601 5596 5590 5585 5580 5575 5570 5567 5564
5676 5677 5677 5677 5676 5676 5676 5676 5674 5672 5672 5672 5671 5670 5669 5667 5664 5662 5660 5658 5655 5652 5650 5647 5644 5641 5638 5634 5629 5623 5618 5614 5609 5602 5596 5590 5585 5579 5574 5569 5564 5560 5555 5552
5665 5664 5665 5665 5667 5668 5668 5669 5668 5667 5666 5665 5664 5663 5661 5658 5654 5652 5651 5650 5648 5645 5643 5640 5636 5633 5630 5625 5620 5614 5609 5604 5600 5592 5586 5580 5575 5569 5564 5559 5554 5549 5545 5542
5666 5665 5664 5664 5662 5660 5660 5661 5661 5660 5659 5659 5657 5655 5652 5649 5646 5644 5642 5640 5638 5634 5632 5630 5628 5624 5620 5616 5611 5605 5599 5594 5588 5582 5576 5571 5565 5560 5555 5550 5545 5540 5535 5531
5658 5658 5658 5658 5657 5656 5654 5653 5653 5653 5652 5651 5649 5647 5645 5642 5640 5636 5633 5630 5627 5623 5621 5620 5618 5613 5608 5605 5600 5595 5589 5583 5577 5572 5566 5561 5555 5550 5544 5539 5534 5529 5525 5520
5649 5650 5650 5649 5649 5648 5647 5646 5646 5645 5644 5643 5640 5637 5634 5632 5630 5627 5624 5620 5618 5616 5613 5609 5606 5601 5597 5593 5589 5583 5578 5573 5567 5561 5555 5550 5544 5539 5534 5529 5524 5519 5514 5509
5639 5640 5640 5640 5640 5640 5640 5639 5637 5635 5635 5633 5631 5628 5625 5622 5620 5617 5613 5608 5606 5605 5602 5599 5594 5590 5585 5582 5578 5572 5567 5561 5556 5550 5545 5539 5534 5528 5523 5518 5513 5508 5503 5498
5628 5629 5630 5630 5630 5629 5630 5629 5629 5627 5625 5623 5621 5618 5615 5611 5609 5606 5603 5600 5596 5594 5590 5586 5582 5579 5575 5571 5565 5559 5554 5550 5544 5539 5533 5528 5522 5517 5512 5507 5502 5497 5491 5486
5618 5618 5619 5619 5619 5619 5619 5618 5618 5617 5615 5613 5611 5608 5606 5603 5599 5595 5590 5587 5586 5583 5579 5574 5571 5568 5564 5558 5553 5548 5543 5537 5532 5527 5522 5517 5511 5506 5500 5495 5490 5485 5480 5475
5607 5607 5608 5609 5609 5607 5606 5606 5606 5606 5605 5603 5601 5599 5596 5591 5587 5585 5583 5579 5576 5572 5567 5563 5560 5556 5552 5545 5540 5535 5530 5525 5520 5515 5510 5505 5499 5494 5489 5483 5478 5473 5468 5463
5596 5597 5597 5597 5596 5596 5595 5594 5593 5592 5591 5589 5588 5586 5585 5583 5578 5574 5570 5567 5564 5559 5554 5550 5547 5543 5537 5532 5527 5522 5517 5512 5508 5503 5498 5492 5487 5482 5477 5472 5467 5462 5457 5452
5584 5584 5585 5586 5586 5585 5584 5583 5581 5580 5578 5576 5574 5572 5571 5569 5566 5562 5558 5554 5550 5546 5541 5536 5532 5529 5524 5519 5514 5509 5504 5500 5495 5490 5485 5480 5475 5470 5465 5460 5456 5451 5446 5442
5572 5572 5572 5572 5573 5574 5574 5573 5571 5569 5568 5566 5562 5560 5558 5556 5552 5549 5545 5540 5536 5532 5527 5523 5519 5515 5510 5505 5501 5496 5492 5487 5482 5478 5473 5469 5464 5459 5455 5450 5446 5441 5437 5433